Location: Unspecified
(0.0000°N, 0.0000°E)
Time: 11:37:34
(UTC+00:00)

S-56A Canister/Altair - Pass Details

Date: 26 November 2019
Orbit: 632 x 2500 km, 38.9° (Epoch: 13 December)

Event Time Altitude Azimuth Distance (km) Brightness Sun altitude
Rises 00:39:03 0° 280° (W) 2,910 - -65.6°
Reaches altitude 10° 00:41:56 10° 260° (W) 2,017 - -65.2°
Maximum altitude 00:44:59 18° 216° (SW) 1,637 - -64.8°
Drops below altitude 10° 00:48:23 10° 173° (S) 2,262 - -64.3°
Sets 00:51:54 0° 154° (SSE) 3,429 - -63.8°
